Regional Weather Roundup
Issued by NWS

Home | Current Version | Previous Version | Text Only | Print | Product List | Glossary On
Versions: 1 2 3 4 5 6 7 8 9 10 11 12 13 14 15 16 17 18 19 20 21 22 23 24 25 26 27 28 29 30 31 32 33 34 35 36 37 38 39 40 41 42 43 44 45 46 47 48 49 50
000
ASUS43 KDTX 271710
RWRMI
MICHIGAN HOURLY REGIONAL WEATHER ROUNDUP
NATIONAL WEATHER SERVICE DETROIT/PONTIAC MI
1200 PM EST SAT DEC 27 2014

NOTE: "FAIR" INDICATES FEW OR NO CLOUDS BELOW 12,000 FEET WITH NO
SIGNIFICANT WEATHER AND/OR OBSTRUCTION TO VISIBILITY.

MIZ047>049-052>055-059>063-066>070-074>076-081>083-271800-
SOUTHEAST LOWER MICHIGAN

CITY           SKY/WX    TMP DP  RH WIND       PRES   REMARKS
ADRIAN         CLOUDY    44  43  96 SW15      30.02F FOG
ALMA           CLOUDY    45  44  93 S16       29.89F
ANN ARBOR      CLOUDY    44  43  96 SW14      29.99F FOG
BAD AXE        CLOUDY    44  43  97 SW12      29.91F
DETROIT CITY   CLOUDY    47  41  80 SW14G22   30.00F
DETROIT        CLOUDY    45  43  93 S17       30.01F
FLINT          CLOUDY    48  42  80 SW15      29.96F
GROSSE ILE     CLOUDY    45  41  87 S15       30.01F
HILLSDALE      CLOUDY    45  45 100 SW9G18    30.00F FOG
HOWELL         CLOUDY    44  43  96 S10G17    29.97F FOG

CITY           SKY/WX    TMP DP  RH WIND       PRES   REMARKS
JACKSON        CLOUDY    46  43  89 SW15G23   29.97F
LAMBERTVILLE   CLOUDY    46  43  87 S7        30.03F
LANSING        CLOUDY    46  43  89 SW18      29.97F
LAPEER         NOT AVBL
MASON          CLOUDY    45  42  91 SW7       29.97F
MONROE         CLOUDY    46  45  93 S13G18    30.01F
MT. CLEMENS    CLOUDY    46  40  81 S14       29.96F
PONTIAC        CLOUDY    43  42  97 S12G21    29.96F
PORT HOPE        N/A     46  41  82 VRB6      29.88F
PORT HURON     CLOUDY    45  41  87 S13G24    29.98F
TRI CITIES     CLOUDY    48  43  82 S20       29.90F
YPSILANTI      CLOUDY    48  42  80 S17G26    30.00F
$$
MIZ043>046-050>051-056>058-064>065-071>073-077>080-271800-
SOUTHWEST LOWER MICHIGAN

CITY           SKY/WX    TMP DP  RH WIND       PRES   REMARKS
BATTLE CREEK   CLOUDY    46  44  93 SW15      29.96F FOG
BENTON HARBOR  CLOUDY    47  46  97 S14G23    29.96F
BIG RAPIDS     CLOUDY    45  45 100 SW17G26   29.84F FOG
COLDWATER      CLOUDY    45  44  97 SW12G20   29.99F FOG
HOLLAND        CLOUDY    50  45  83 S21G26    29.93F
GRAND RAPIDS   CLOUDY    46  44  93 SW18G25   29.93F FOG
KALAMAZOO      CLOUDY    46  44  93 SW15G25   29.97F FOG
MARSHALL       CLOUDY    45  43  93 SW12G18   29.97F
MUSKEGON       FOG       44  43  96 S22G30    29.91R VSB 1/2
$$
MIZ016>042-271800-
NORTHERN LOWER MICHIGAN

CITY           SKY/WX    TMP DP  RH WIND       PRES   REMARKS
ALPENA         CLOUDY    43  40  89 S12       29.81F
BEAVER ISLAND  RAIN      37  37 100 CALM      29.75F VSB 1
BELLAIRE       CLOUDY    44  42  92 S9G18     29.75F
CADILLAC       RAIN      42  42  99 S12G23    29.79F
CHARLEVOIX     CLOUDY    42  42 100 S8        29.77F FOG
FRANKFORT      RAIN      44  43  97 S13G23    29.77F
GAYLORD        FOG       38  38 100 S16       29.75F VSB 1/4
GRAYLING       FOG       40  40 100 S8        29.79F VSB 1/2
HARBOR SPRINGS CLOUDY    39  39  97 CALM      29.74F FOG
HOUGHTON LAKE  FOG       40  40 100 S13G21    29.80F VSB 1/2
MANISTEE       CLOUDY    46  43  87 SW20G26   29.79F
OSCODA         CLOUDY    44  41  88 S16G23    29.86F
PELLSTON       CLOUDY    38  37  97 SE6       29.75F FOG
TRAVERSE CITY  LGT RAIN  47  44  90 SW8       29.75F FOG
$$
MIZ007>008-015-271800-
EASTERN UPPER MICHIGAN

CITY           SKY/WX    TMP DP  RH WIND       PRES   REMARKS
KINROSS        CLOUDY    36  36 100 SE7       29.75F
MACKINAC ISLAN LGT SNOW  38  38 100 SE8       29.75F
NEWBERRY       SNOW      32  32 100 N9        29.76F VSB 1/2
S. S. MARIE    LGT RAIN  35  34  96 NE5       29.75F VSB 3/4
$$
MIZ004>006-011>014-085-271800-
CENTRAL UPPER MICHIGAN

CITY           SKY/WX    TMP DP  RH WIND       PRES   REMARKS
MANISTIQUE     SNOW      32  32 100 N12       29.76F VSB 1/2
ESCANABA       CLOUDY    32  28  86 N8        29.78F VSB 3/4
MENOMINEE      CLOUDY    34  30  86 N5        29.78F
SAWYER-GWINN   LGT SNOW  32  30  93 NE9       29.80F VSB 3/4
$$
MIZ001>003-009>011-084-271800-
WESTERN UPPER MICHIGAN

CITY           SKY/WX    TMP DP  RH WIND       PRES   REMARKS
IRON MOUNTAIN  LGT SNOW  31  29  92 N7        29.79F FOG
HOUGHTON       LGT SNOW  28  23  81 NE12      29.87F VSB 1
COPPER HARBOR    N/A     31  27  85 NE15      29.90F
IRONWOOD       CLOUDY    27  27 100 N9        29.90S VSB 1/2
$$

ABBREVIATIONS USED IN REMARKS
   TC - TEMPERATURE IN CELSIUS
  WCI - WIND CHILL INDEX
   HX - HEAT INDEX
  VSB - VISIBILITY




USA.gov is the U.S. government's official web portal to all federal, state and local government web resources and services.